Dades meteomassalio
Diari Summary for Maig 15, 2017 Units:  English    Metric   Both
« Previous Day
Next Day »
Diari Semanal Mensual Anual Personalitzat
  Maxima: Minima: Mijana:
Temperatura: TemperatureC °F 11.0 °F 21 °F
Rosada: DewpointC °F 8.4 °F 10.5 °F
Humitat: Humidity % 29 % 55 %
Velocitat del vent: WindSpeedKMH mph 0.0 mph 6.2 mph
Racha vent: WindSpeedGustKMH mph - -
Vent:- - ESE
Pressio: PressurehPa in 1023.6 in -
Pluja: 0.0 in    
Historical Graphs
 
 
Tabular Data for Maig 15, 2017
Time Temperature Dew Point Pressure Wind Wind Speed Wind Gust Humidity Rainfall Rate (Hourly) solar Conditions
TemperatureC °F DewpointC °F PressurehPa in Calm     Humidity % HourlyPrecipMM in SolarRadiationWatts/m^2 W/m2 Conditions
00:03 19.1 °F 11.6 °F 1024.9 in Calm     62 % 0.0 in 0.0 W/m2 CLR
00:08 18.9 °F 11.5 °F 1024.9 in Calm     62 % 0.0 in 0.0 W/m2 CLR
00:13 18.9 °F 11.4 °F 1024.9 in Calm     62 % 0.0 in 0.0 W/m2 CLR
00:18 18.9 °F 11.4 °F 1024.9 in Calm     62 % 0.0 in 0.0 W/m2 CLR
00:23 18.5 °F 11.3 °F 1024.9 in Calm     63 % 0.0 in 0.0 W/m2 CLR
00:28 18.1 °F 11.4 °F 1024.9 in Calm     65 % 0.0 in 0.0 W/m2 CLR
00:33 17.8 °F 11.3 °F 1024.9 in Calm     66 % 0.0 in 0.0 W/m2 CLR
00:38 17.6 °F 11.1 °F 1024.9 in Calm     66 % 0.0 in 0.0 W/m2 CLR
00:43 17.3 °F 11.2 °F 1024.9 in Calm     67 % 0.0 in 0.0 W/m2 CLR
00:48 17.0 °F 11.1 °F 1024.9 in Calm     68 % 0.0 in 0.0 W/m2 CLR
00:53 16.8 °F 11.1 °F 1025.3 in Calm     69 % 0.0 in 0.0 W/m2 CLR
00:58 16.6 °F 11.1 °F 1025.3 in Calm     70 % 0.0 in 0.0 W/m2 CLR
01:03 16.4 °F 10.9 °F 1025.3 in Calm     70 % 0.0 in 0.0 W/m2 CLR
01:08 16.3 °F 11.0 °F 1025.3 in Calm     71 % 0.0 in 0.0 W/m2 CLR
01:13 16.1 °F 10.8 °F 1025.3 in Calm     71 % 0.0 in 0.0 W/m2 CLR
01:18 15.9 °F 10.9 °F 1025.3 in Calm     72 % 0.0 in 0.0 W/m2 CLR
01:23 15.8 °F 10.7 °F 1025.3 in Calm     72 % 0.0 in 0.0 W/m2 CLR
01:28 15.6 °F 10.8 °F 1025.3 in Calm     73 % 0.0 in 0.0 W/m2 CLR
01:33 15.5 °F 10.7 °F 1025.3 in Calm     73 % 0.0 in 0.0 W/m2 CLR
01:38 15.3 °F 10.7 °F 1025.3 in Calm     74 % 0.0 in 0.0 W/m2 CLR
01:44 15.2 °F 10.6 °F 1025.3 in Calm     74 % 0.0 in 0.0 W/m2 CLR
01:49 15.1 °F 10.7 °F 1025.3 in Calm     75 % 0.0 in 0.0 W/m2 CLR
01:54 15.1 °F 10.7 °F 1025.3 in Calm     75 % 0.0 in 0.0 W/m2 CLR
01:59 14.9 °F 10.6 °F 1025.3 in Calm     75 % 0.0 in 0.0 W/m2 CLR
02:04 14.8 °F 10.7 °F 1025.3 in Calm     76 % 0.0 in 0.0 W/m2 CLR
02:09 14.7 °F 10.5 °F 1025.3 in Calm     76 % 0.0 in 0.0 W/m2 CLR
02:14 14.6 °F 10.6 °F 1025.3 in Calm     77 % 0.0 in 0.0 W/m2 CLR
02:19 14.4 °F 10.4 °F 1025.3 in Calm     77 % 0.0 in 0.0 W/m2 CLR
02:24 14.3 °F 10.3 °F 1025.3 in Calm     77 % 0.0 in 0.0 W/m2 CLR
02:29 14.2 °F 10.4 °F 1025.3 in Calm     78 % 0.0 in 0.0 W/m2 CLR
02:34 14.0 °F 10.2 °F 1025.3 in Calm     78 % 0.0 in 0.0 W/m2 CLR
02:39 13.9 °F 10.3 °F 1025.3 in Calm     79 % 0.0 in 0.0 W/m2 CLR
02:44 13.9 °F 10.3 °F 1025.6 in Calm     79 % 0.0 in 0.0 W/m2 CLR
02:49 13.8 °F 10.3 °F 1025.6 in Calm     79 % 0.0 in 0.0 W/m2 CLR
02:54 13.8 °F 10.2 °F 1025.3 in Calm     79 % 0.0 in 0.0 W/m2 CLR
02:59 13.7 °F 10.2 °F 1025.6 in Calm     79 % 0.0 in 0.0 W/m2 CLR
03:04 13.8 °F 10.2 °F 1025.6 in Calm     79 % 0.0 in 0.0 W/m2 CLR
03:09 13.6 °F 10.1 °F 1025.6 in Calm     79 % 0.0 in 0.0 W/m2 CLR
03:14 13.6 °F 10.0 °F 1025.6 in Calm     79 % 0.0 in 0.0 W/m2 CLR
03:19 13.5 °F 9.9 °F 1025.6 in Calm     79 % 0.0 in 0.0 W/m2 CLR
03:24 13.4 °F 10.0 °F 1025.6 in Calm     80 % 0.0 in 0.0 W/m2 CLR
03:29 13.3 °F 9.9 °F 1025.6 in Calm     80 % 0.0 in 0.0 W/m2 CLR
03:34 13.2 °F 10.1 °F 1025.6 in Calm     81 % 0.0 in 0.0 W/m2 CLR
03:39 13.2 °F 10.1 °F 1025.6 in Calm     81 % 0.0 in 0.0 W/m2 CLR
03:44 13.3 °F 10.1 °F 1025.6 in Calm     81 % 0.0 in 0.0 W/m2 CLR
03:49 13.3 °F 10.1 °F 1025.6 in Calm     81 % 0.0 in 0.0 W/m2 CLR
03:54 13.2 °F 9.8 °F 1025.6 in Calm     80 % 0.0 in 0.0 W/m2 CLR
03:59 13.1 °F 9.7 °F 1025.6 in Calm     80 % 0.0 in 0.0 W/m2 CLR
04:04 13.0 °F 9.8 °F 1026.0 in Calm     81 % 0.0 in 0.0 W/m2 CLR
04:09 12.8 °F 9.7 °F 1026.0 in Calm     81 % 0.0 in 0.0 W/m2 CLR
04:14 12.7 °F 9.7 °F 1026.0 in Calm     82 % 0.0 in 0.0 W/m2 CLR
04:19 12.6 °F 9.6 °F 1026.0 in Calm     82 % 0.0 in 0.0 W/m2 CLR
04:24 12.5 °F 9.5 °F 1026.0 in Calm     82 % 0.0 in 0.0 W/m2 CLR
04:29 12.4 °F 9.6 °F 1026.0 in Calm     83 % 0.0 in 0.0 W/m2 CLR
04:34 12.3 °F 9.5 °F 1026.0 in Calm     83 % 0.0 in 0.0 W/m2 CLR
04:39 12.2 °F 9.4 °F 1026.0 in Calm     83 % 0.0 in 0.0 W/m2 CLR
04:44 12.2 °F 9.4 °F 1026.0 in Calm     83 % 0.0 in 0.0 W/m2 CLR
04:49 12.1 °F 9.3 °F 1026.3 in Calm     83 % 0.0 in 0.0 W/m2 CLR
04:54 12.0 °F 9.2 °F 1026.3 in Calm     83 % 0.0 in 0.0 W/m2 CLR
04:59 11.9 °F 9.1 °F 1026.3 in Calm     83 % 0.0 in 0.0 W/m2 CLR
05:04 11.8 °F 9.2 °F 1026.3 in Calm     84 % 0.0 in 0.0 W/m2 CLR
05:09 11.8 °F 9.2 °F 1026.3 in Calm     84 % 0.0 in 0.0 W/m2 CLR
05:14 11.7 °F 9.1 °F 1026.3 in Calm     84 % 0.0 in 0.0 W/m2 CLR
05:15 11.7 °F 9.1 °F 1026.3 in Calm     84 % 0.0 in 0.0 W/m2 CLR
05:20 11.7 °F 9.1 °F 1026.3 in Calm     84 % 0.0 in 0.0 W/m2 CLR
05:25 11.6 °F 8.9 °F 1026.3 in Calm     84 % 0.0 in 0.0 W/m2 CLR
05:30 11.4 °F 9.0 °F 1026.3 in Calm     85 % 0.0 in 0.0 W/m2 CLR
05:35 11.4 °F 8.9 °F 1026.3 in Calm     85 % 0.0 in 0.0 W/m2 CLR
05:40 11.3 °F 8.9 °F 1026.3 in Calm     85 % 0.0 in 0.0 W/m2 CLR
05:45 11.3 °F 9.0 °F 1026.3 in Calm     86 % 0.0 in 0.0 W/m2 CLR
05:50 11.2 °F 8.9 °F 1026.6 in Calm     86 % 0.0 in 0.0 W/m2 CLR
05:55 11.2 °F 8.9 °F 1026.3 in Calm     86 % 0.0 in 0.0 W/m2 CLR
06:00 11.2 °F 8.9 °F 1026.6 in Calm     86 % 0.0 in 0.0 W/m2 CLR
06:05 11.2 °F 8.9 °F 1026.6 in Calm     86 % 0.0 in 0.0 W/m2 CLR
06:10 11.2 °F 8.8 °F 1026.3 in Calm     85 % 0.0 in 0.0 W/m2 CLR
06:15 11.1 °F 8.7 °F 1026.6 in Calm     85 % 0.0 in 0.0 W/m2 CLR
06:20 11.0 °F 8.6 °F 1026.6 in Calm     85 % 0.0 in 0.0 W/m2 CLR
06:25 11.1 °F 8.8 °F 1026.6 in Calm     86 % 0.0 in 0.0 W/m2 CLR
06:30 11.1 °F 8.8 °F 1026.6 in Calm     86 % 0.0 in 0.0 W/m2 CLR
06:35 11.1 °F 8.8 °F 1026.6 in Calm     86 % 0.0 in 5.0 W/m2 OVC
06:40 11.1 °F 8.8 °F 1026.6 in Calm     86 % 0.0 in 5.0 W/m2 OVC
06:45 11.1 °F 8.8 °F 1026.6 in Calm     86 % 0.0 in 7.0 W/m2 BKN
06:50 11.1 °F 8.8 °F 1026.6 in Calm     86 % 0.0 in 12.0 W/m2 BKN
06:55 11.1 °F 8.8 °F 1027.0 in Calm     86 % 0.0 in 16.0 W/m2 BKN
07:00 11.1 °F 8.8 °F 1027.0 in Calm     86 % 0.0 in 19.0 W/m2 BKN
07:05 11.1 °F 8.8 °F 1027.0 in Calm     86 % 0.0 in 21.0 W/m2 BKN
07:10 11.2 °F 8.9 °F 1027.0 in Calm     86 % 0.0 in 26.0 W/m2 BKN
07:15 11.4 °F 9.1 °F 1027.0 in Calm     86 % 0.0 in 33.0 W/m2 BKN
07:20 11.5 °F 9.1 °F 1027.0 in Calm     85 % 0.0 in 42.0 W/m2 BKN
07:25 11.6 °F 9.2 °F 1027.0 in Calm     85 % 0.0 in 49.0 W/m2 SCT
07:30 11.7 °F 9.3 °F 1027.0 in Calm     85 % 0.0 in 63.0 W/m2 SCT
07:35 11.9 °F 9.4 °F 1027.3 in Calm     85 % 0.0 in 72.0 W/m2 FEW
07:40 12.2 °F 9.7 °F 1027.3 in Calm     85 % 0.0 in 84.0 W/m2 FEW
07:45 12.4 °F 9.6 °F 1027.3 in Calm     83 % 0.0 in 93.0 W/m2 FEW
07:50 12.7 °F 9.8 °F 1027.3 in Calm     83 % 0.0 in 113.0 W/m2 CLR
07:55 12.8 °F 9.8 °F 1027.3 in Calm     82 % 0.0 in 125.0 W/m2 CLR
08:00 13.2 °F 10.2 °F 1027.3 in Calm     82 % 0.0 in 149.0 W/m2 CLR
08:05 13.6 °F 10.4 °F 1027.3 in Calm     81 % 0.0 in 178.0 W/m2 CLR
08:10 14.0 °F 10.4 °F 1027.3 in Calm     79 % 0.0 in 190.0 W/m2 CLR
08:15 14.2 °F 10.4 °F 1027.3 in Calm     78 % 0.0 in 188.0 W/m2 CLR
08:20 14.6 °F 10.6 °F 1027.3 in Calm     77 % 0.0 in 202.0 W/m2 CLR
08:26 14.9 °F 10.7 °F 1027.3 in Calm     76 % 0.0 in 209.0 W/m2 CLR
08:31 15.3 °F 10.9 °F 1027.3 in Calm     75 % 0.0 in 223.0 W/m2 CLR
08:36 15.8 °F 11.2 °F 1027.3 in Calm     74 % 0.0 in 239.0 W/m2 CLR
08:41 16.3 °F 11.4 °F 1027.3 in Calm     73 % 0.0 in 257.0 W/m2 CLR
08:46 16.7 °F 11.4 °F 1027.3 in Calm     71 % 0.0 in 272.0 W/m2 CLR
08:51 17.1 °F 11.6 °F 1027.3 in Calm     70 % 0.0 in 285.0 W/m2 CLR
08:56 17.6 °F 11.8 °F 1027.3 in Calm     69 % 0.0 in 339.0 W/m2 CLR
09:01 18.1 °F 12.1 °F 1027.3 in Calm     68 % 0.0 in 357.0 W/m2 CLR
09:06 18.6 °F 12.1 °F 1027.3 in Calm     66 % 0.0 in 336.0 W/m2 CLR
09:11 19.1 °F 12.1 °F 1027.3 in Calm     64 % 0.0 in 295.0 W/m2 CLR
09:16 19.4 °F 12.2 °F 1027.3 in Calm     63 % 0.0 in 345.0 W/m2 CLR
09:21 19.5 °F 12.3 °F 1027.3 in Calm     63 % 0.0 in 396.0 W/m2 CLR
09:26 20.1 °F 12.3 °F 1027.3 in Calm     61 % 0.0 in 413.0 W/m2 CLR
09:31 20.3 °F 12.1 °F 1027.3 in Calm     59 % 0.0 in 378.0 W/m2 CLR
09:36 20.4 °F 12.4 °F 1027.3 in Calm     60 % 0.0 in 450.0 W/m2 CLR
09:41 20.6 °F 12.6 °F 1027.3 in Calm     60 % 0.0 in 339.0 W/m2 CLR
09:46 20.7 °F 12.1 °F 1027.3 in Calm     58 % 0.0 in 107.0 W/m2 CLR
09:51 20.8 °F 12.0 °F 1027.3 in Calm     57 % 0.0 in 483.0 W/m2 CLR
09:56 21.0 °F 12.2 °F 1027.3 in Calm     57 % 0.0 in 504.0 W/m2 CLR
10:01 21.3 °F 12.2 °F 1027.3 in Calm     56 % 0.0 in 534.0 W/m2 CLR
10:06 21.5 °F 12.1 °F 1027.3 in Calm     55 % 0.0 in 533.0 W/m2 CLR
10:11 21.8 °F 12.4 °F 1027.3 in Calm     55 % 0.0 in 554.0 W/m2 CLR
10:16 22.2 °F 12.4 °F 1027.3 in Calm     54 % 0.0 in 552.0 W/m2 CLR
10:21 22.3 °F 11.9 °F 1027.3 in ENE 5.6 mph 5.6 mph 52 % 0.0 in 571.0 W/m2 CLR
10:26 22.3 °F 12.2 °F 1027.3 in Calm     53 % 0.0 in 599.0 W/m2 CLR
10:31 22.4 °F 12.4 °F 1027.3 in ENE 4.8 mph   53 % 0.0 in 643.0 W/m2 CLR
10:36 22.7 °F 12.3 °F 1027.3 in ENE 1.9 mph 1.9 mph 52 % 0.0 in 652.0 W/m2 CLR
10:41 22.9 °F 12.2 °F 1027.3 in Calm     51 % 0.0 in 631.0 W/m2 CLR
10:46 23.2 °F 12.2 °F 1027.3 in ENE 1.9 mph   50 % 0.0 in 686.0 W/m2 CLR
10:51 23.5 °F 12.5 °F 1027.3 in NE 7.4 mph 7.4 mph 50 % 0.0 in 650.0 W/m2 CLR
10:56 23.6 °F 12.2 °F 1027.0 in ENE 5.6 mph 5.6 mph 49 % 0.0 in 663.0 W/m2 CLR
11:01 23.6 °F 12.3 °F 1027.0 in ENE 7.4 mph   49 % 0.0 in 693.0 W/m2 CLR
11:06 23.8 °F 12.7 °F 1027.0 in ENE 3.2 mph 3.2 mph 50 % 0.0 in 691.0 W/m2 CLR
11:11 23.9 °F 12.2 °F 1027.0 in ENE 5.6 mph   48 % 0.0 in 733.0 W/m2 CLR
11:16 23.9 °F 11.9 °F 1027.0 in NE 7.4 mph 7.4 mph 47 % 0.0 in 738.0 W/m2 CLR
11:21 24.0 °F 12.0 °F 1027.0 in Calm     47 % 0.0 in 737.0 W/m2 CLR
11:26 24.4 °F 12.3 °F 1027.0 in ENE 4.8 mph 4.8 mph 47 % 0.0 in 765.0 W/m2 CLR
11:31 24.8 °F 12.4 °F 1027.0 in Calm     46 % 0.0 in 761.0 W/m2 CLR
11:36 25.1 °F 12.0 °F 1027.0 in East 4.8 mph 4.8 mph 44 % 0.0 in 728.0 W/m2 CLR
11:41 25.1 °F 12.0 °F 1027.0 in East 6.4 mph 6.4 mph 44 % 0.0 in 703.0 W/m2 CLR
11:46 25.1 °F 12.3 °F 1027.0 in NE 5.6 mph 5.6 mph 45 % 0.0 in 796.0 W/m2 CLR
11:51 25.2 °F 12.4 °F 1027.0 in ENE 11.1 mph 11.1 mph 45 % 0.0 in 803.0 W/m2 CLR
11:56 25.2 °F 12.1 °F 1027.0 in North 9.3 mph 9.3 mph 44 % 0.0 in 775.0 W/m2 CLR
12:01 25.2 °F 12.4 °F 1026.6 in Calm     45 % 0.0 in 838.0 W/m2 CLR
12:06 25.6 °F 12.8 °F 1026.6 in ENE 9.3 mph   45 % 0.0 in 856.0 W/m2 CLR
12:11 25.9 °F 12.7 °F 1026.6 in NNE 14.8 mph 14.8 mph 44 % 0.0 in 881.0 W/m2 CLR
12:16 25.9 °F 13.1 °F 1026.6 in ENE 11.3 mph 11.3 mph 45 % 0.0 in 847.0 W/m2 CLR
12:21 26.1 °F 12.6 °F 1026.6 in ENE 14.8 mph 14.8 mph 43 % 0.0 in 844.0 W/m2 CLR
12:26 26.1 °F 12.6 °F 1026.6 in ENE 16.7 mph 16.7 mph 43 % 0.0 in 816.0 W/m2 CLR
12:31 26.2 °F 12.7 °F 1026.6 in NNE 11.1 mph 11.1 mph 43 % 0.0 in 861.0 W/m2 CLR
12:36 26.4 °F 12.1 °F 1026.6 in NNE 7.4 mph 7.4 mph 41 % 0.0 in 886.0 W/m2 CLR
12:41 26.7 °F 12.3 °F 1026.6 in NE 11.1 mph 11.1 mph 41 % 0.0 in 870.0 W/m2 CLR
12:46 26.8 °F 11.7 °F 1026.6 in NE 6.4 mph 6.4 mph 39 % 0.0 in 858.0 W/m2 CLR
12:51 26.8 °F 12.1 °F 1026.3 in NE 9.3 mph 9.3 mph 40 % 0.0 in 904.0 W/m2 CLR
12:56 27.2 °F 11.7 °F 1026.3 in ENE 7.4 mph   38 % 0.0 in 907.0 W/m2 CLR
13:01 27.5 °F 11.9 °F 1026.3 in NE 6.4 mph 6.4 mph 38 % 0.0 in 918.0 W/m2 CLR
13:06 27.8 °F 11.4 °F 1026.3 in ENE 5.6 mph 5.6 mph 36 % 0.0 in 914.0 W/m2 CLR
13:07 27.8 °F 11.4 °F 1026.3 in Calm     36 % 0.0 in 918.0 W/m2 CLR
13:12 27.9 °F 11.0 °F 1026.3 in ENE 13.0 mph 13.0 mph 35 % 0.0 in 921.0 W/m2 CLR
13:18 27.9 °F 11.1 °F 1026.3 in ENE 18.5 mph 18.5 mph 35 % 0.0 in 923.0 W/m2 CLR
13:23 27.7 °F 10.8 °F 1026.3 in NE 14.8 mph 14.8 mph 35 % 0.0 in 925.0 W/m2 CLR
13:28 27.7 °F 10.4 °F 1026.0 in North 14.8 mph 14.8 mph 34 % 0.0 in 932.0 W/m2 CLR
13:33 27.6 °F 11.2 °F 1026.0 in ENE 3.2 mph 3.9 mph 36 % 0.0 in 939.0 W/m2 CLR
13:38 27.6 °F 10.8 °F 1026.0 in NE 3.7 mph 3.7 mph 35 % 0.0 in 965.0 W/m2 CLR
13:43 27.7 °F 10.9 °F 1026.0 in WNW 4.8 mph 4.8 mph 35 % 0.0 in 970.0 W/m2 CLR
13:48 28.1 °F 9.8 °F 1026.0 in NNE 7.4 mph 7.4 mph 32 % 0.0 in 988.0 W/m2 CLR
13:49 28.0 °F 10.2 °F 1026.0 in NNE 9.3 mph 9.3 mph 33 % 0.0 in 142.0 W/m2 CLR
13:54 27.7 °F 10.4 °F 1026.0 in NW 9.3 mph 9.3 mph 34 % 0.0 in 983.0 W/m2 CLR
13:59 27.8 °F 9.6 °F 1026.0 in North 9.3 mph 9.3 mph 32 % 0.0 in 155.0 W/m2 CLR
14:04 27.4 °F 9.3 °F 1025.6 in NNE 9.3 mph 9.3 mph 32 % 0.0 in 190.0 W/m2 CLR
14:09 27.8 °F 8.6 °F 1025.6 in NNE 9.3 mph 9.3 mph 30 % 0.0 in 1002.0 W/m2 CLR
14:14 28.2 °F 8.4 °F 1025.6 in North 7.4 mph 7.4 mph 29 % 0.0 in 976.0 W/m2 CLR
14:19 28.3 °F 8.6 °F 1025.3 in WSW 11.1 mph 11.1 mph 29 % 0.0 in 963.0 W/m2 CLR
14:24 28.6 °F 8.8 °F 1025.3 in West 5.6 mph 5.6 mph 29 % 0.0 in 969.0 W/m2 CLR
14:29 28.9 °F 10.1 °F 1025.3 in East 18.5 mph 18.5 mph 31 % 0.0 in 942.0 W/m2 CLR
14:34 28.7 °F 9.9 °F 1025.3 in ENE 11.1 mph 11.1 mph 31 % 0.0 in 926.0 W/m2 CLR
14:39 28.7 °F 10.4 °F 1025.3 in NE 11.1 mph 11.1 mph 32 % 0.0 in 919.0 W/m2 CLR
14:44 28.8 °F 10.4 °F 1025.3 in ESE 9.3 mph 9.3 mph 32 % 0.0 in 923.0 W/m2 CLR
14:49 28.6 °F 9.8 °F 1025.3 in East 11.1 mph 11.1 mph 31 % 0.0 in 916.0 W/m2 CLR
14:54 28.5 °F 9.7 °F 1025.3 in East 16.1 mph 16.1 mph 31 % 0.0 in 923.0 W/m2 CLR
14:59 28.4 °F 9.7 °F 1024.9 in NNE 13.0 mph 13.0 mph 31 % 0.0 in 930.0 W/m2 CLR
15:04 28.7 °F 9.4 °F 1024.9 in SE 11.1 mph 11.1 mph 30 % 0.0 in 930.0 W/m2 CLR
15:09 29.0 °F 9.7 °F 1024.9 in NE 5.6 mph 5.6 mph 30 % 0.0 in 942.0 W/m2 CLR
15:14 29.6 °F 9.7 °F 1024.9 in North 16.7 mph 16.7 mph 29 % 0.0 in 956.0 W/m2 CLR
15:19 29.4 °F 9.5 °F 1024.9 in ENE 12.9 mph 12.9 mph 29 % 0.0 in 921.0 W/m2 CLR
15:24 28.9 °F 9.1 °F 1024.9 in ENE 14.8 mph 14.8 mph 29 % 0.0 in 937.0 W/m2 CLR
15:29 28.9 °F 9.1 °F 1024.9 in ESE 16.1 mph 16.1 mph 29 % 0.0 in 905.0 W/m2 CLR
15:34 28.7 °F 9.4 °F 1024.6 in East 7.4 mph 7.4 mph 30 % 0.0 in 882.0 W/m2 CLR
15:39 28.7 °F 9.4 °F 1024.6 in ESE 16.7 mph 16.7 mph 30 % 0.0 in 846.0 W/m2 CLR
15:44 28.9 °F 9.6 °F 1024.6 in ESE 19.3 mph 19.3 mph 30 % 0.0 in 874.0 W/m2 CLR
15:49 28.9 °F 9.6 °F 1024.3 in ENE 14.8 mph 14.8 mph 30 % 0.0 in 830.0 W/m2 CLR
15:54 28.8 °F 9.0 °F 1024.6 in ESE 5.6 mph 5.6 mph 29 % 0.0 in 828.0 W/m2 CLR
15:59 29.0 °F 9.2 °F 1024.3 in East 18.5 mph 18.5 mph 29 % 0.0 in 810.0 W/m2 CLR
16:04 28.7 °F 9.4 °F 1024.3 in Calm     30 % 0.0 in 795.0 W/m2 CLR
16:09 28.7 °F 8.9 °F 1024.3 in ESE 13.0 mph 13.0 mph 29 % 0.0 in 786.0 W/m2 CLR
16:14 28.8 °F 8.9 °F 1024.3 in East 5.6 mph 5.6 mph 29 % 0.0 in 742.0 W/m2 CLR
16:19 28.9 °F 9.1 °F 1024.3 in ENE 5.6 mph 5.6 mph 29 % 0.0 in 664.0 W/m2 CLR
16:24 29.3 °F 9.9 °F 1024.3 in NNE 1.9 mph 1.9 mph 30 % 0.0 in 729.0 W/m2 CLR
16:29 29.6 °F 9.7 °F 1024.3 in East 5.6 mph 5.6 mph 29 % 0.0 in 742.0 W/m2 CLR
16:34 29.6 °F 10.2 °F 1023.9 in SSE 11.1 mph 11.1 mph 30 % 0.0 in 689.0 W/m2 CLR
16:39 29.2 °F 9.8 °F 1023.9 in SE 8.0 mph 8.0 mph 30 % 0.0 in 577.0 W/m2 CLR
16:44 28.9 °F 10.1 °F 1023.9 in East 5.6 mph 5.6 mph 31 % 0.0 in 529.0 W/m2 CLR
16:49 29.0 °F 10.6 °F 1023.9 in ESE 12.9 mph 12.9 mph 32 % 0.0 in 455.0 W/m2 CLR
16:54 28.6 °F 10.3 °F 1023.9 in ESE 18.5 mph 18.5 mph 32 % 0.0 in 462.0 W/m2 CLR
16:59 28.4 °F 10.6 °F 1023.9 in East 16.7 mph 16.7 mph 33 % 0.0 in 436.0 W/m2 CLR
17:04 28.1 °F 10.7 °F 1023.9 in ESE 18.5 mph 18.5 mph 34 % 0.0 in 439.0 W/m2 CLR
17:09 27.9 °F 10.6 °F 1023.9 in ESE 25.9 mph 25.9 mph 34 % 0.0 in 462.0 W/m2 CLR
17:14 27.8 °F 10.5 °F 1023.9 in SE 22.2 mph 22.2 mph 34 % 0.0 in 401.0 W/m2 CLR
17:19 27.7 °F 10.9 °F 1023.9 in SSE 18.5 mph 18.5 mph 35 % 0.0 in 338.0 W/m2 CLR
17:24 27.7 °F 10.9 °F 1023.9 in East 14.8 mph 14.8 mph 35 % 0.0 in 322.0 W/m2 CLR
17:29 27.8 °F 10.9 °F 1023.9 in SSE 20.9 mph 20.9 mph 35 % 0.0 in 313.0 W/m2 CLR
17:34 27.7 °F 11.7 °F 1023.9 in SE 20.9 mph 20.9 mph 37 % 0.0 in 302.0 W/m2 CLR
17:39 27.2 °F 12.1 °F 1023.9 in SE 20.4 mph 20.4 mph 39 % 0.0 in 302.0 W/m2 CLR
17:40 27.2 °F 12.1 °F 1023.9 in ESE 20.4 mph 20.4 mph 39 % 0.0 in 294.0 W/m2 CLR
17:45 27.3 °F 12.1 °F 1023.9 in ESE 20.9 mph 20.9 mph 39 % 0.0 in 290.0 W/m2 CLR
17:50 27.1 °F 11.9 °F 1023.6 in SE 24.1 mph 24.1 mph 39 % 0.0 in 283.0 W/m2 CLR
17:55 27.1 °F 12.3 °F 1023.6 in SSE 24.1 mph 24.1 mph 40 % 0.0 in 302.0 W/m2 CLR
18:00 26.9 °F 12.2 °F 1023.9 in SE 20.4 mph 20.4 mph 40 % 0.0 in 299.0 W/m2 CLR
18:05 26.9 °F 12.5 °F 1023.9 in SE 20.4 mph 20.4 mph 41 % 0.0 in 304.0 W/m2 CLR
18:10 26.8 °F 12.1 °F 1023.6 in SE 24.1 mph 24.1 mph 40 % 0.0 in 294.0 W/m2 CLR
18:15 26.7 °F 12.4 °F 1023.6 in ESE 18.5 mph 18.5 mph 41 % 0.0 in 380.0 W/m2 CLR
18:20 26.9 °F 12.2 °F 1023.6 in ESE 18.5 mph 18.5 mph 40 % 0.0 in 343.0 W/m2 CLR
18:25 26.9 °F 12.5 °F 1023.6 in SE 16.7 mph 16.7 mph 41 % 0.0 in 341.0 W/m2 CLR
18:30 26.8 °F 12.1 °F 1023.6 in SSE 20.9 mph 20.9 mph 40 % 0.0 in 299.0 W/m2 CLR
18:35 26.6 °F 11.9 °F 1023.6 in SE 24.1 mph 24.1 mph 40 % 0.0 in 320.0 W/m2 CLR
18:40 26.6 °F 11.8 °F 1023.6 in South 18.5 mph 18.5 mph 40 % 0.0 in 309.0 W/m2 CLR
18:45 26.6 °F 12.3 °F 1023.6 in SSE 18.5 mph 18.5 mph 41 % 0.0 in 283.0 W/m2 CLR
18:50 26.6 °F 12.3 °F 1023.6 in SSE 14.8 mph 14.8 mph 41 % 0.0 in 258.0 W/m2 CLR
18:55 26.6 °F 11.8 °F 1023.6 in SSE 20.4 mph 20.4 mph 40 % 0.0 in 234.0 W/m2 CLR
19:00 26.6 °F 11.8 °F 1023.6 in SSE 22.2 mph 22.2 mph 40 % 0.0 in 213.0 W/m2 CLR
19:05 26.5 °F 11.8 °F 1023.6 in SE 18.5 mph 18.5 mph 40 % 0.0 in 206.0 W/m2 CLR
19:10 26.5 °F 12.2 °F 1023.6 in SE 18.5 mph 18.5 mph 41 % 0.0 in 206.0 W/m2 CLR
19:15 26.6 °F 12.2 °F 1023.6 in SE 13.0 mph 13.0 mph 41 % 0.0 in 251.0 W/m2 CLR
19:20 26.7 °F 12.4 °F 1023.6 in South 14.8 mph 14.8 mph 41 % 0.0 in 244.0 W/m2 CLR
19:25 26.7 °F 12.3 °F 1023.6 in SSE 18.5 mph 18.5 mph 41 % 0.0 in 190.0 W/m2 CLR
19:31 26.6 °F 12.2 °F 1023.6 in SSE 18.5 mph 18.5 mph 41 % 0.0 in 172.0 W/m2 CLR
19:35 26.3 °F 12.0 °F 1023.6 in SSE 18.5 mph 18.5 mph 41 % 0.0 in 151.0 W/m2 CLR
19:40 26.3 °F 12.0 °F 1023.6 in SSW 22.2 mph 22.2 mph 41 % 0.0 in 137.0 W/m2 CLR
19:45 26.2 °F 11.9 °F 1023.6 in South 14.8 mph 14.8 mph 41 % 0.0 in 125.0 W/m2 CLR
19:50 26.1 °F 11.8 °F 1023.6 in South 18.5 mph 18.5 mph 41 % 0.0 in 107.0 W/m2 CLR
19:56 26.0 °F 11.7 °F 1023.6 in South 16.7 mph 16.7 mph 41 % 0.0 in 91.0 W/m2 CLR
20:01 25.8 °F 11.6 °F 1023.6 in South 14.8 mph 14.8 mph 41 % 0.0 in 81.0 W/m2 CLR
20:06 25.7 °F 11.5 °F 1023.6 in SSW 18.5 mph 18.5 mph 41 % 0.0 in 67.0 W/m2 FEW
20:11 25.6 °F 11.3 °F 1023.9 in South 22.2 mph 22.2 mph 41 % 0.0 in 58.0 W/m2 SCT
20:16 25.4 °F 11.2 °F 1023.9 in South 18.5 mph 18.5 mph 41 % 0.0 in 54.0 W/m2 SCT
20:21 25.3 °F 11.1 °F 1023.9 in South 14.8 mph 14.8 mph 41 % 0.0 in 53.0 W/m2 SCT
20:26 25.2 °F 11.4 °F 1023.9 in South 20.4 mph 20.4 mph 42 % 0.0 in 54.0 W/m2 SCT
20:31 25.2 °F 11.3 °F 1023.9 in South 16.7 mph 16.7 mph 42 % 0.0 in 47.0 W/m2 SCT
20:36 25.1 °F 11.2 °F 1023.9 in SSE 14.5 mph 14.5 mph 42 % 0.0 in 40.0 W/m2 BKN
20:41 24.9 °F 11.2 °F 1023.9 in South 12.9 mph 12.9 mph 42 % 0.0 in 35.0 W/m2 BKN
20:46 24.8 °F 11.1 °F 1024.3 in SSE 13.0 mph 13.0 mph 42 % 0.0 in 28.0 W/m2 BKN
20:51 24.7 °F 10.6 °F 1024.3 in South 11.1 mph 11.1 mph 41 % 0.0 in 23.0 W/m2 BKN
20:56 24.6 °F 10.4 °F 1024.3 in South 16.7 mph 16.7 mph 41 % 0.0 in 18.0 W/m2 BKN
20:57 24.6 °F 10.4 °F 1024.3 in SSE 11.1 mph 11.1 mph 41 % 0.0 in 16.0 W/m2 BKN
21:02 24.4 °F 10.3 °F 1024.3 in South 18.5 mph 18.5 mph 41 % 0.0 in 12.0 W/m2 BKN
21:07 24.3 °F 9.9 °F 1024.3 in South 18.5 mph 18.5 mph 40 % 0.0 in 9.0 W/m2 BKN
21:12 24.2 °F 9.8 °F 1024.3 in South 13.0 mph 13.0 mph 40 % 0.0 in 0.0 W/m2 OVC
21:17 24.2 °F 9.7 °F 1024.6 in SSE 14.8 mph 14.8 mph 40 % 0.0 in 5.0 W/m2 OVC
21:22 24.1 °F 9.6 °F 1024.6 in South 13.0 mph 13.0 mph 40 % 0.0 in 0.0 W/m2 CLR
21:27 23.9 °F 9.4 °F 1024.6 in SSE 9.3 mph 9.3 mph 40 % 0.0 in 0.0 W/m2 CLR
21:32 23.8 °F 9.7 °F 1024.6 in SSE 9.3 mph 9.3 mph 41 % 0.0 in 0.0 W/m2 CLR
21:37 23.7 °F 9.6 °F 1024.6 in South 6.4 mph 6.4 mph 41 % 0.0 in 0.0 W/m2 CLR
21:42 23.6 °F 9.6 °F 1024.6 in SSW 5.6 mph 5.6 mph 41 % 0.0 in 0.0 W/m2 CLR
21:47 23.4 °F 9.7 °F 1024.6 in SSE 6.4 mph 6.4 mph 42 % 0.0 in 0.0 W/m2 CLR
21:52 23.3 °F 9.3 °F 1024.6 in SSE 6.4 mph 6.4 mph 41 % 0.0 in 0.0 W/m2 CLR
21:57 23.2 °F 9.6 °F 1024.6 in South 9.3 mph 9.3 mph 42 % 0.0 in 0.0 W/m2 CLR
21:58 23.2 °F 9.6 °F 1024.6 in South 9.3 mph 9.3 mph 42 % 0.0 in 0.0 W/m2 CLR
22:03 23.1 °F 9.5 °F 1024.6 in South 7.4 mph 7.4 mph 42 % 0.0 in 0.0 W/m2 CLR
22:08 23.0 °F 9.4 °F 1024.6 in South 8.0 mph 8.0 mph 42 % 0.0 in 0.0 W/m2 CLR
22:13 22.9 °F 9.3 °F 1024.6 in South 7.4 mph 7.4 mph 42 % 0.0 in 0.0 W/m2 CLR
22:18 22.9 °F 9.3 °F 1024.9 in South 7.4 mph 7.4 mph 42 % 0.0 in 0.0 W/m2 CLR
22:23 22.8 °F 9.2 °F 1024.9 in South 5.6 mph 5.6 mph 42 % 0.0 in 0.0 W/m2 CLR
22:28 22.6 °F 9.1 °F 1024.9 in Calm     42 % 0.0 in 0.0 W/m2 CLR
22:33 22.5 °F 9.3 °F 1024.9 in Calm     43 % 0.0 in 0.0 W/m2 CLR
22:38 22.3 °F 9.4 °F 1024.9 in Calm     44 % 0.0 in 0.0 W/m2 CLR
22:43 22.0 °F 9.2 °F 1024.9 in Calm     44 % 0.0 in 0.0 W/m2 CLR
22:48 21.8 °F 9.4 °F 1025.3 in Calm     45 % 0.0 in 0.0 W/m2 CLR
22:53 21.7 °F 9.2 °F 1025.3 in Calm     45 % 0.0 in 0.0 W/m2 CLR
22:58 21.4 °F 9.3 °F 1024.9 in Calm     46 % 0.0 in 0.0 W/m2 CLR
23:03 21.3 °F 9.5 °F 1025.3 in Calm     47 % 0.0 in 0.0 W/m2 CLR
23:08 21.1 °F 9.3 °F 1025.3 in Calm     47 % 0.0 in 0.0 W/m2 CLR
23:13 21.0 °F 9.3 °F 1025.3 in Calm     47 % 0.0 in 0.0 W/m2 CLR
23:18 20.9 °F 9.2 °F 1025.3 in Calm     47 % 0.0 in 0.0 W/m2 CLR
23:23 20.8 °F 9.1 °F 1025.3 in Calm     47 % 0.0 in 0.0 W/m2 CLR
23:28 20.8 °F 9.1 °F 1025.3 in Calm     47 % 0.0 in 0.0 W/m2 CLR
23:33 20.8 °F 9.1 °F 1025.3 in Calm     47 % 0.0 in 0.0 W/m2 CLR
23:38 20.7 °F 9.0 °F 1025.3 in Calm     47 % 0.0 in 0.0 W/m2 CLR
23:43 20.7 °F 8.9 °F 1025.3 in Calm     47 % 0.0 in 0.0 W/m2 CLR
23:49 20.8 °F 8.7 °F 1025.3 in Calm     46 % 0.0 in 0.0 W/m2 CLR
23:54 20.8 °F 8.8 °F 1025.3 in Calm     46 % 0.0 in 0.0 W/m2 CLR
23:59 20.8 °F 9.1 °F 1025.3 in Calm     47 % 0.0 in 0.0 W/m2 CLR
Lo Temps de Massalio
Compliments of Weather Underground - 1.25 mb